STARLINK-36344, 67710

Orbit data source: Space-Track

STARLINK-36344, 67710 is a payload satellite owned by SpaceX/Seattle (US) in SSO that was launched on Sat, 07 Feb 2026 UTC via an FALCON 9 launch vehicle from the Air Force Western Test Range (AFWTR). Payload-class satellites include a variety of spacecraft equipped with specific instruments for various scientific and technological missions. These include communications satellites like Starlink; space stations such as the ISS; scientific satellites like the Hubble; Earth observation satellites from companies like Planet Labs, Umbra, and HawkEye 360; GPS; miniature CubeSats for education and research; and military/defense satellites.

Loading next visibility...
Identifier
67710, 2026-025T
Orbit
SSO
Country
Flag of USUS
Related business
Manufacturer
SpaceX/Seattle
Mission
Operational spacecraft
Bus & Motor
STARLINK V2MO, Unknown motor
Mass
575 kg wet, ~530 kg dry
Launch date (UTC)
2026-02-07 (2 months ago)
Launch vehicle
FALCON 9
Launch site
Air Force Western Test Range (AFWTR)
Object type
Payload
Rocket body
Debris
Shape & HBR
Unknown shape, 17.7 m
Radar Cross Section
RCS unknown

Expand to show TLE details & history
Last TLE update: 15 hours ago

TLE from 15 hours ago
0 STARLINK-36344
1 67710U 26025T   26103.73791386  .00013516  00000-0  42013-3 0  9991
2 67710  97.2884 215.9273 0001129  22.7068 337.4224 15.33453755 11398
Epoch: 2026-04-13T17:42Z
TLE epoch observation values (Epoch: 2026-04-13T17:42:35.757Z)
Latitude
-0.00008°
Longitude
108.35411°
Altitude
467.915 km
Speed
7.633 km/s
True Right ascension
14h 23m 42s
True Declination
0° 00' 00"
Sunlit
Object was in full shadow at epoch
Visualization orbit readout
Latitude
Unknown
Longitude
Unknown
Altitude
Unknown
Speed
Unknown
Apparent Right ascension
Unknown
Apparent Declination
Unknown
Sunlit
N/A
Visualization observer readout
Local Sidereal Time
15:09:16
Azimuth
Unknown
Elevation
Unknown
Doppler factor
Unknown
Orbital elements
Apogee altitude
463.232 km
Perigee altitude
461.688 km
Semi-major axis
6,840.597 km
Eccentricity
0.00011
Inclination
97.2884°
RAAN
215.9273°
Arg. of periapsis
22.7068°
True anomaly
337.41743°
Mean anomaly
337.4224°
Eccentric anomaly
337.41992°
Mean motion
3.83621 °/min
Orbital period
93.84 mins
BSTAR
0.00042013
Loading maneuver chart data...
Computing Atmospheric mass density...
Loading historical data...
Loading historical data...
Loading historical data...
Loading historical data...
Loading historical data...
Loading historical data...
Loading historical data...

Documentation

Showing up to 5 results
|